Location: Arrodets-la-Barthe
(43.0306°N, 0.2829°E)
Time: 15:52:18
(UTC+00:00)

Cosmos 1605 Rocket - Pass Details

Date: 24 October 2021
Orbit: 945 x 1006 km, 82.9° (Epoch: 06 December)

Event Time Altitude Azimuth Distance (km) Brightness Sun altitude
Rises 18:39:24 0° 190° (S) 3,659 7.1 -18.4°
Reaches altitude 10° 18:41:53 10° 192° (SSW) 2,724 6.5 -18.9°
Maximum altitude 18:48:09 77° 278° (W) 1,018 4.2 -20.0°
Drops below altitude 10° 18:54:33 10° 5° (N) 2,779 6.4 -21.2°
Sets 18:57:07 0° 7° (N) 3,738 7.0 -21.7°
